Location: Trois-Rivi�res
(46.3500°N, 72.5500°W)
Time: 12:50:45
(UTC-04:00)

Tiangong 2 - Pass Details

Date: 16 October 2017
Orbit: 388 x 392 km, 42.8° (Epoch: 18 October)

Event Time Altitude Azimuth Distance (km) Brightness Sun altitude
Exits shadow 06:13:06 15° 252° (WSW) 1,170 2.9 -10.4°
Maximum altitude 06:15:15 30° 195° (SSW) 726 2.3 -10.0°
Drops below altitude 10° 06:18:07 10° 132° (SE) 1,419 4.8 -9.6°
Sets 06:20:20 0° 121° (ESE) 2,273 6.2 -9.2°
